Wetterdaten: Samstag, 17.10.2015
Datum Zeit Temp. Auen Feucht Auen Luftdruck Regen Richtung Richtung Windben
17.10.2015 00:00 4,7 C 93 % 1019,9 hPa 0,0 mm W 271 1,6 km/h (1 Bft)
17.10.2015 00:05 4,6 C 93 % 1019,8 hPa 0,0 mm W 271 1,6 km/h (1 Bft)
17.10.2015 00:10 4,6 C 93 % 1019,9 hPa 0,0 mm W 271 1,6 km/h (1 Bft)
17.10.2015 00:15 4,6 C 93 % 1019,9 hPa 0,0 mm W 271 3,2 km/h (1 Bft)
17.10.2015 00:20 4,6 C 93 % 1019,9 hPa 0,0 mm W 271 1,6 km/h (1 Bft)
17.10.2015 00:25 4,6 C 93 % 1019,9 hPa 0,0 mm W 271 0,0 km/h (0 Bft)
17.10.2015 00:30 4,6 C 93 % 1019,8 hPa 0,0 mm W 271 0,0 km/h (0 Bft)
17.10.2015 00:35 4,6 C 93 % 1019,8 hPa 0,0 mm W 271 3,2 km/h (1 Bft)
17.10.2015 00:40 4,5 C 93 % 1019,7 hPa 0,0 mm W 271 1,6 km/h (1 Bft)
17.10.2015 00:45 4,5 C 93 % 1019,6 hPa 0,0 mm W 271 1,6 km/h (1 Bft)
17.10.2015 00:50 4,4 C 93 % 1019,7 hPa 0,0 mm W 271 3,2 km/h (1 Bft)
17.10.2015 00:55 4,4 C 93 % 1019,7 hPa 0,0 mm W 271 0,0 km/h (0 Bft)
17.10.2015 01:00 4,4 C 93 % 1019,7 hPa 0,0 mm W 271 0,0 km/h (0 Bft)
17.10.2015 01:05 4,4 C 93 % 1019,7 hPa 0,0 mm W 271 1,6 km/h (1 Bft)
17.10.2015 01:10 4,4 C 93 % 1019,6 hPa 0,0 mm W 271 0,0 km/h (0 Bft)
17.10.2015 01:15 4,4 C 93 % 1019,7 hPa 0,0 mm W 271 0,0 km/h (0 Bft)
17.10.2015 01:20 4,4 C 93 % 1019,7 hPa 0,0 mm W 271 0,0 km/h (0 Bft)
17.10.2015 01:25 4,4 C 93 % 1019,7 hPa 0,0 mm W 271 0,0 km/h (0 Bft)
17.10.2015 01:30 4,4 C 93 % 1019,6 hPa 0,0 mm W 271 0,0 km/h (0 Bft)
17.10.2015 01:35 4,3 C 93 % 1019,6 hPa 0,0 mm W 271 0,0 km/h (0 Bft)
17.10.2015 01:40 4,3 C 93 % 1019,6 hPa 0,0 mm W 271 0,0 km/h (0 Bft)
17.10.2015 01:45 4,3 C 93 % 1019,6 hPa 0,0 mm W 271 0,0 km/h (0 Bft)
17.10.2015 01:50 4,3 C 93 % 1019,5 hPa 0,0 mm W 271 0,0 km/h (0 Bft)
17.10.2015 01:55 4,3 C 93 % 1019,5 hPa 0,0 mm W 271 0,0 km/h (0 Bft)
17.10.2015 02:00 4,3 C 93 % 1019,5 hPa 0,0 mm W 271 0,0 km/h (0 Bft)
17.10.2015 02:05 4,3 C 93 % 1019,4 hPa 0,0 mm W 271 0,0 km/h (0 Bft)
17.10.2015 02:10 4,3 C 93 % 1019,3 hPa 0,0 mm W 271 0,0 km/h (0 Bft)
17.10.2015 02:15 4,2 C 93 % 1019,3 hPa 0,0 mm W 271 0,0 km/h (0 Bft)
17.10.2015 02:20 4,2 C 93 % 1019,4 hPa 0,0 mm W 271 1,6 km/h (1 Bft)
17.10.2015 02:25 4,1 C 93 % 1019,4 hPa 0,0 mm W 271 0,0 km/h (0 Bft)
17.10.2015 02:30 4,1 C 93 % 1019,5 hPa 0,0 mm W 271 0,0 km/h (0 Bft)
17.10.2015 02:35 4,1 C 93 % 1019,4 hPa 0,0 mm W 271 0,0 km/h (0 Bft)
17.10.2015 02:40 3,9 C 93 % 1019,4 hPa 0,0 mm W 271 0,0 km/h (0 Bft)
17.10.2015 02:45 3,8 C 93 % 1019,4 hPa 0,0 mm W 271 0,0 km/h (0 Bft)
17.10.2015 02:50 3,8 C 93 % 1019,4 hPa 0,0 mm W 271 0,0 km/h (0 Bft)
17.10.2015 02:55 3,8 C 93 % 1019,4 hPa 0,0 mm W 271 0,0 km/h (0 Bft)
17.10.2015 03:00 3,8 C 93 % 1019,4 hPa 0,0 mm W 271 1,6 km/h (1 Bft)
17.10.2015 03:05 3,8 C 93 % 1019,5 hPa 0,0 mm W 271 3,2 km/h (1 Bft)
17.10.2015 03:10 3,8 C 93 % 1019,4 hPa 0,0 mm W 271 3,2 km/h (1 Bft)
17.10.2015 03:15 3,8 C 93 % 1019,3 hPa 0,0 mm W 271 3,2 km/h (1 Bft)
17.10.2015 03:20 3,8 C 93 % 1019,3 hPa 0,0 mm W 271 0,0 km/h (0 Bft)
17.10.2015 03:25 3,8 C 93 % 1019,3 hPa 0,0 mm W 271 1,6 km/h (1 Bft)
17.10.2015 03:30 3,8 C 93 % 1019,2 hPa 0,0 mm W 271 1,6 km/h (1 Bft)
17.10.2015 03:35 3,8 C 93 % 1019,3 hPa 0,0 mm W 271 0,0 km/h (0 Bft)
17.10.2015 03:40 3,8 C 93 % 1019,2 hPa 0,0 mm W 271 0,0 km/h (0 Bft)
17.10.2015 03:45 3,8 C 93 % 1019,2 hPa 0,0 mm W 271 0,0 km/h (0 Bft)
17.10.2015 03:50 3,8 C 93 % 1019,2 hPa 0,0 mm W 271 0,0 km/h (0 Bft)
17.10.2015 03:55 3,8 C 93 % 1019,2 hPa 0,0 mm W 271 0,0 km/h (0 Bft)
17.10.2015 04:00 3,8 C 93 % 1019,2 hPa 0,0 mm W 271 0,0 km/h (0 Bft)
17.10.2015 04:05 3,8 C 93 % 1019,2 hPa 0,0 mm W 271 0,0 km/h (0 Bft)
17.10.2015 04:10 3,8 C 93 % 1019,3 hPa 0,0 mm W 271 0,0 km/h (0 Bft)
17.10.2015 04:15 3,8 C 93 % 1019,3 hPa 0,0 mm W 271 0,0 km/h (0 Bft)
17.10.2015 04:20 3,8 C 93 % 1019,2 hPa 0,0 mm W 271 0,0 km/h (0 Bft)
17.10.2015 04:25 3,8 C 93 % 1019,3 hPa 0,0 mm W 271 0,0 km/h (0 Bft)
17.10.2015 04:30 3,8 C 93 % 1019,3 hPa 0,0 mm W 271 0,0 km/h (0 Bft)
17.10.2015 04:35 3,8 C 93 % 1019,2 hPa 0,0 mm W 271 0,0 km/h (0 Bft)
17.10.2015 04:40 3,8 C 93 % 1019,2 hPa 0,0 mm W 271 0,0 km/h (0 Bft)
17.10.2015 04:45 3,9 C 93 % 1019,3 hPa 0,0 mm W 271 0,0 km/h (0 Bft)
17.10.2015 04:50 3,9 C 93 % 1019,4 hPa 0,0 mm W 271 0,0 km/h (0 Bft)
17.10.2015 04:55 3,9 C 93 % 1019,3 hPa 0,0 mm W 271 0,0 km/h (0 Bft)
17.10.2015 05:00 4,0 C 94 % 1019,3 hPa 0,0 mm W 271 0,0 km/h (0 Bft)
17.10.2015 05:05 3,9 C 94 % 1019,3 hPa 0,0 mm W 271 0,0 km/h (0 Bft)
17.10.2015 05:10 3,9 C 93 % 1019,3 hPa 0,0 mm W 271 0,0 km/h (0 Bft)
17.10.2015 05:15 3,9 C 93 % 1019,3 hPa 0,0 mm W 271 0,0 km/h (0 Bft)
17.10.2015 05:20 3,9 C 93 % 1019,3 hPa 0,0 mm W 271 0,0 km/h (0 Bft)
17.10.2015 05:25 3,9 C 94 % 1019,3 hPa 0,0 mm W 271 0,0 km/h (0 Bft)
17.10.2015 05:30 4,0 C 94 % 1019,3 hPa 0,0 mm W 271 0,0 km/h (0 Bft)
17.10.2015 05:35 4,0 C 94 % 1019,4 hPa 0,0 mm W 271 0,0 km/h (0 Bft)
17.10.2015 05:40 4,0 C 94 % 1019,3 hPa 0,0 mm W 271 0,0 km/h (0 Bft)
17.10.2015 05:45 4,0 C 94 % 1019,3 hPa 0,0 mm W 271 0,0 km/h (0 Bft)
17.10.2015 05:50 4,1 C 94 % 1019,3 hPa 0,0 mm W 271 0,0 km/h (0 Bft)
17.10.2015 05:55 4,1 C 94 % 1019,4 hPa 0,0 mm W 271 0,0 km/h (0 Bft)
17.10.2015 06:00 4,1 C 94 % 1019,4 hPa 0,0 mm W 271 0,0 km/h (0 Bft)
17.10.2015 06:05 4,1 C 94 % 1019,4 hPa 0,0 mm W 271 0,0 km/h (0 Bft)
17.10.2015 06:10 4,1 C 94 % 1019,4 hPa 0,0 mm W 271 0,0 km/h (0 Bft)
17.10.2015 06:15 4,1 C 94 % 1019,5 hPa 0,0 mm W 271 0,0 km/h (0 Bft)
17.10.2015 06:20 4,2 C 94 % 1019,5 hPa 0,0 mm W 271 0,0 km/h (0 Bft)
17.10.2015 06:25 4,1 C 94 % 1019,5 hPa 0,0 mm W 271 0,0 km/h (0 Bft)
17.10.2015 06:30 4,2 C 94 % 1019,6 hPa 0,0 mm W 271 0,0 km/h (0 Bft)
17.10.2015 06:35 4,2 C 94 % 1019,5 hPa 0,0 mm W 271 0,0 km/h (0 Bft)
17.10.2015 06:40 4,2 C 94 % 1019,5 hPa 0,0 mm W 271 0,0 km/h (0 Bft)
17.10.2015 06:45 4,2 C 94 % 1019,5 hPa 0,0 mm W 271 0,0 km/h (0 Bft)
17.10.2015 06:50 4,2 C 94 % 1019,5 hPa 0,0 mm W 271 0,0 km/h (0 Bft)
17.10.2015 06:55 4,2 C 94 % 1019,4 hPa 0,0 mm W 271 0,0 km/h (0 Bft)
17.10.2015 07:00 4,2 C 94 % 1019,5 hPa 0,0 mm W 271 0,0 km/h (0 Bft)
17.10.2015 07:05 4,3 C 94 % 1019,5 hPa 0,0 mm W 271 0,0 km/h (0 Bft)
17.10.2015 07:10 4,3 C 94 % 1019,5 hPa 0,0 mm W 271 0,0 km/h (0 Bft)
17.10.2015 07:15 4,3 C 94 % 1019,5 hPa 0,0 mm W 271 0,0 km/h (0 Bft)
17.10.2015 07:20 4,3 C 94 % 1019,5 hPa 0,0 mm W 271 0,0 km/h (0 Bft)
17.10.2015 07:25 4,3 C 94 % 1019,5 hPa 0,0 mm W 271 0,0 km/h (0 Bft)
17.10.2015 07:30 4,3 C 94 % 1019,5 hPa 0,0 mm W 271 0,0 km/h (0 Bft)
17.10.2015 07:35 4,3 C 94 % 1019,5 hPa 0,0 mm W 271 0,0 km/h (0 Bft)
17.10.2015 07:40 4,3 C 94 % 1019,5 hPa 0,0 mm W 271 0,0 km/h (0 Bft)
17.10.2015 07:45 4,3 C 94 % 1019,5 hPa 0,0 mm W 271 0,0 km/h (0 Bft)
17.10.2015 07:50 4,4 C 94 % 1019,6 hPa 0,0 mm W 271 0,0 km/h (0 Bft)
17.10.2015 07:55 4,4 C 94 % 1019,6 hPa 0,0 mm W 271 0,0 km/h (0 Bft)
17.10.2015 08:00 4,4 C 94 % 1019,7 hPa 0,0 mm W 271 0,0 km/h (0 Bft)
17.10.2015 08:05 4,4 C 94 % 1019,7 hPa 0,0 mm W 271 0,0 km/h (0 Bft)
17.10.2015 08:10 4,4 C 94 % 1019,7 hPa 0,0 mm W 271 0,0 km/h (0 Bft)
17.10.2015 08:15 4,5 C 94 % 1019,7 hPa 0,0 mm W 271 0,0 km/h (0 Bft)
17.10.2015 08:20 4,6 C 94 % 1019,8 hPa 0,0 mm W 271 0,0 km/h (0 Bft)
17.10.2015 08:25 4,6 C 94 % 1019,8 hPa 0,0 mm W 271 0,0 km/h (0 Bft)
17.10.2015 08:30 4,6 C 94 % 1019,9 hPa 0,0 mm W 271 0,0 km/h (0 Bft)
17.10.2015 08:35 4,7 C 94 % 1019,9 hPa 0,0 mm W 271 0,0 km/h (0 Bft)
17.10.2015 08:40 4,7 C 94 % 1019,9 hPa 0,0 mm W 271 0,0 km/h (0 Bft)
17.10.2015 08:45 4,7 C 94 % 1020,0 hPa 0,0 mm W 271 0,0 km/h (0 Bft)
17.10.2015 08:50 4,8 C 94 % 1020,0 hPa 0,0 mm W 271 0,0 km/h (0 Bft)
17.10.2015 08:55 5,2 C 94 % 1020,1 hPa 0,0 mm W 271 0,0 km/h (0 Bft)
17.10.2015 09:00 5,3 C 94 % 1020,0 hPa 0,0 mm W 271 0,0 km/h (0 Bft)
17.10.2015 09:05 5,4 C 94 % 1020,1 hPa 0,0 mm W 271 0,0 km/h (0 Bft)
17.10.2015 09:10 5,6 C 94 % 1020,2 hPa 0,0 mm W 271 0,0 km/h (0 Bft)
17.10.2015 09:15 5,7 C 94 % 1020,1 hPa 0,0 mm W 271 0,0 km/h (0 Bft)
17.10.2015 09:20 5,6 C 93 % 1020,1 hPa 0,0 mm W 271 0,0 km/h (0 Bft)
17.10.2015 09:25 5,6 C 93 % 1020,1 hPa 0,0 mm W 271 0,0 km/h (0 Bft)
17.10.2015 09:30 5,5 C 93 % 1020,0 hPa 0,0 mm W 271 0,0 km/h (0 Bft)
17.10.2015 09:35 5,8 C 93 % 1020,0 hPa 0,0 mm W 271 0,0 km/h (0 Bft)
17.10.2015 09:40 6,0 C 93 % 1020,0 hPa 0,0 mm W 271 0,0 km/h (0 Bft)
17.10.2015 09:45 6,2 C 93 % 1020,0 hPa 0,0 mm W 271 0,0 km/h (0 Bft)
17.10.2015 09:50 6,1 C 92 % 1020,0 hPa 0,0 mm W 271 0,0 km/h (0 Bft)
17.10.2015 09:55 6,3 C 92 % 1020,1 hPa 0,0 mm W 271 0,0 km/h (0 Bft)
17.10.2015 10:00 6,3 C 91 % 1020,1 hPa 0,0 mm N-NW 327 3,2 km/h (1 Bft)
17.10.2015 10:05 6,5 C 91 % 1020,1 hPa 0,0 mm N-NW 327 0,0 km/h (0 Bft)
17.10.2015 10:10 6,6 C 90 % 1020,0 hPa 0,0 mm N-NW 330 0,0 km/h (0 Bft)
17.10.2015 10:15 7,0 C 89 % 1019,9 hPa 0,0 mm N-NW 341 3,2 km/h (1 Bft)
17.10.2015 10:20 6,8 C 89 % 1019,9 hPa 0,0 mm O 84 3,2 km/h (1 Bft)
17.10.2015 10:25 6,6 C 89 % 1019,9 hPa 0,0 mm O 97 3,2 km/h (1 Bft)
17.10.2015 10:30 6,7 C 89 % 1019,9 hPa 0,0 mm O-SO 108 3,2 km/h (1 Bft)
17.10.2015 10:35 6,9 C 88 % 1019,9 hPa 0,0 mm O-SO 114 3,2 km/h (1 Bft)
17.10.2015 10:40 6,8 C 87 % 1019,8 hPa 0,0 mm O 90 4,8 km/h (1 Bft)
17.10.2015 10:45 6,8 C 88 % 1019,8 hPa 0,0 mm O 90 1,6 km/h (1 Bft)
17.10.2015 10:50 6,9 C 87 % 1019,8 hPa 0,0 mm O 90 1,6 km/h (1 Bft)
17.10.2015 10:55 6,8 C 87 % 1019,8 hPa 0,0 mm O-SO 118 4,8 km/h (1 Bft)
17.10.2015 11:00 6,8 C 87 % 1019,7 hPa 0,0 mm O-SO 118 3,2 km/h (1 Bft)
17.10.2015 11:05 6,8 C 87 % 1019,7 hPa 0,0 mm O-SO 118 0,0 km/h (0 Bft)
17.10.2015 11:10 6,8 C 87 % 1019,6 hPa 0,0 mm O-SO 118 3,2 km/h (1 Bft)
17.10.2015 11:15 6,8 C 87 % 1019,5 hPa 0,0 mm O-SO 118 1,6 km/h (1 Bft)
17.10.2015 11:20 6,9 C 87 % 1019,5 hPa 0,0 mm O-SO 118 4,8 km/h (1 Bft)
17.10.2015 11:25 7,0 C 87 % 1019,5 hPa 0,0 mm O-SO 118 3,2 km/h (1 Bft)
17.10.2015 11:30 7,1 C 87 % 1019,5 hPa 0,0 mm O-SO 118 4,8 km/h (1 Bft)
17.10.2015 11:35 7,2 C 87 % 1019,4 hPa 0,0 mm SO 125 4,8 km/h (1 Bft)
17.10.2015 11:40 7,6 C 89 % 1019,4 hPa 0,0 mm SO 136 6,4 km/h (2 Bft)
17.10.2015 11:45 7,7 C 86 % 1019,4 hPa 0,0 mm S-SO 147 6,4 km/h (2 Bft)
17.10.2015 11:50 7,7 C 86 % 1019,3 hPa 0,0 mm O-SO 105 8,0 km/h (2 Bft)
17.10.2015 11:55 7,6 C 85 % 1019,2 hPa 0,0 mm S-SO 150 4,8 km/h (1 Bft)
17.10.2015 12:00 7,4 C 84 % 1019,3 hPa 0,0 mm S-SO 159 4,8 km/h (1 Bft)
17.10.2015 12:05 7,6 C 84 % 1019,2 hPa 0,0 mm S 171 4,8 km/h (1 Bft)
17.10.2015 12:10 7,6 C 84 % 1019,2 hPa 0,0 mm S 171 1,6 km/h (1 Bft)
17.10.2015 12:15 7,7 C 82 % 1019,2 hPa 0,0 mm O-SO 106 4,8 km/h (1 Bft)
17.10.2015 12:20 7,9 C 85 % 1019,1 hPa 0,0 mm O-NO 62 6,4 km/h (2 Bft)
17.10.2015 12:25 7,9 C 82 % 1019,0 hPa 0,0 mm O-SO 113 6,4 km/h (2 Bft)
17.10.2015 12:30 7,9 C 82 % 1019,0 hPa 0,0 mm O-SO 108 4,8 km/h (1 Bft)
17.10.2015 12:35 8,1 C 82 % 1018,8 hPa 0,0 mm O-NO 76 8,0 km/h (2 Bft)
17.10.2015 12:40 8,2 C 81 % 1018,8 hPa 0,0 mm SO 140 8,0 km/h (2 Bft)
17.10.2015 12:45 8,2 C 81 % 1018,8 hPa 0,0 mm O-SO 105 8,0 km/h (2 Bft)
17.10.2015 12:50 8,1 C 79 % 1018,8 hPa 0,0 mm SO 132 4,8 km/h (1 Bft)
17.10.2015 12:55 8,4 C 81 % 1018,6 hPa 0,0 mm O-SO 107 6,4 km/h (2 Bft)
17.10.2015 13:00 8,3 C 78 % 1018,6 hPa 0,0 mm O 95 8,0 km/h (2 Bft)
17.10.2015 13:05 8,4 C 80 % 1018,6 hPa 0,0 mm SO 138 6,4 km/h (2 Bft)
17.10.2015 13:10 8,4 C 80 % 1018,6 hPa 0,0 mm O 94 8,0 km/h (2 Bft)
17.10.2015 13:15 8,4 C 79 % 1018,6 hPa 0,0 mm O-SO 104 6,4 km/h (2 Bft)
17.10.2015 13:20 8,4 C 78 % 1018,6 hPa 0,0 mm SO 134 6,4 km/h (2 Bft)
17.10.2015 13:25 8,4 C 77 % 1018,5 hPa 0,0 mm S-SO 151 8,0 km/h (2 Bft)
17.10.2015 13:30 8,5 C 77 % 1018,4 hPa 0,0 mm SO 124 6,4 km/h (2 Bft)
17.10.2015 13:35 8,5 C 78 % 1018,4 hPa 0,0 mm SO 146 4,8 km/h (1 Bft)
17.10.2015 13:40 8,7 C 78 % 1018,3 hPa 0,0 mm SO 139 6,4 km/h (2 Bft)
17.10.2015 13:45 8,6 C 76 % 1018,3 hPa 0,0 mm SO 126 4,8 km/h (1 Bft)
17.10.2015 13:50 8,9 C 78 % 1018,3 hPa 0,0 mm S-SW 212 3,2 km/h (1 Bft)
17.10.2015 13:55 8,9 C 77 % 1018,2 hPa 0,0 mm O-NO 59 6,4 km/h (2 Bft)
17.10.2015 14:00 9,1 C 77 % 1018,2 hPa 0,0 mm O-NO 63 4,8 km/h (1 Bft)
17.10.2015 14:05 9,2 C 76 % 1018,1 hPa 0,0 mm S-SO 162 4,8 km/h (1 Bft)
17.10.2015 14:10 8,9 C 76 % 1018,1 hPa 0,0 mm S-SO 162 3,2 km/h (1 Bft)
17.10.2015 14:15 8,9 C 76 % 1018,2 hPa 0,0 mm S-SO 157 3,2 km/h (1 Bft)
17.10.2015 14:20 8,9 C 76 % 1018,3 hPa 0,0 mm S-SO 157 4,8 km/h (1 Bft)
17.10.2015 14:25 8,9 C 76 % 1018,2 hPa 0,0 mm SO 136 4,8 km/h (1 Bft)
17.10.2015 14:30 8,9 C 77 % 1018,2 hPa 0,0 mm SO 130 6,4 km/h (2 Bft)
17.10.2015 14:35 9,0 C 77 % 1018,1 hPa 0,0 mm SO 134 4,8 km/h (1 Bft)
17.10.2015 14:40 8,9 C 76 % 1018,2 hPa 0,0 mm SO 134 4,8 km/h (1 Bft)
17.10.2015 14:45 8,9 C 77 % 1018,2 hPa 0,0 mm SO 142 4,8 km/h (1 Bft)
17.10.2015 14:50 8,9 C 76 % 1018,2 hPa 0,0 mm SO 142 3,2 km/h (1 Bft)
17.10.2015 14:55 8,9 C 77 % 1018,2 hPa 0,0 mm SO 132 6,4 km/h (2 Bft)
17.10.2015 15:00 9,1 C 77 % 1018,1 hPa 0,0 mm SO 125 4,8 km/h (1 Bft)
17.10.2015 15:05 9,3 C 77 % 1018,0 hPa 0,0 mm SO 127 6,4 km/h (2 Bft)
17.10.2015 15:10 9,3 C 75 % 1018,0 hPa 0,0 mm O-SO 120 8,0 km/h (2 Bft)
17.10.2015 15:15 9,2 C 76 % 1018,0 hPa 0,0 mm S-SO 155 8,0 km/h (2 Bft)
17.10.2015 15:20 9,1 C 76 % 1018,0 hPa 0,0 mm SO 140 8,0 km/h (2 Bft)
17.10.2015 15:25 9,2 C 79 % 1018,0 hPa 0,0 mm O-SO 107 8,0 km/h (2 Bft)
17.10.2015 15:30 9,3 C 78 % 1018,0 hPa 0,0 mm O-SO 107 4,8 km/h (1 Bft)
17.10.2015 15:35 9,2 C 77 % 1018,1 hPa 0,0 mm O-SO 107 3,2 km/h (1 Bft)
17.10.2015 15:40 9,2 C 78 % 1018,1 hPa 0,0 mm O-SO 107 4,8 km/h (1 Bft)
17.10.2015 15:45 9,1 C 76 % 1018,1 hPa 0,0 mm O-NO 62 4,8 km/h (1 Bft)
17.10.2015 15:50 9,2 C 79 % 1018,1 hPa 0,0 mm SO 124 4,8 km/h (1 Bft)
17.10.2015 15:55 9,1 C 78 % 1018,2 hPa 0,0 mm O-SO 104 8,0 km/h (2 Bft)
17.10.2015 16:00 9,1 C 79 % 1018,1 hPa 0,0 mm O-SO 107 4,8 km/h (1 Bft)
17.10.2015 16:05 9,1 C 79 % 1018,1 hPa 0,0 mm O-SO 107 3,2 km/h (1 Bft)
17.10.2015 16:10 9,1 C 80 % 1018,1 hPa 0,0 mm O-NO 78 4,8 km/h (1 Bft)
17.10.2015 16:15 9,1 C 80 % 1018,1 hPa 0,0 mm SO 127 6,4 km/h (2 Bft)
17.10.2015 16:20 9,0 C 79 % 1018,1 hPa 0,0 mm O-NO 57 6,4 km/h (2 Bft)
17.10.2015 16:25 9,0 C 79 % 1018,1 hPa 0,0 mm O-NO 71 8,0 km/h (2 Bft)
17.10.2015 16:30 8,9 C 80 % 1018,0 hPa 0,0 mm O 89 6,4 km/h (2 Bft)
17.10.2015 16:35 9,0 C 80 % 1018,1 hPa 0,0 mm O 95 4,8 km/h (1 Bft)
17.10.2015 16:40 9,0 C 79 % 1018,1 hPa 0,0 mm O-NO 63 8,0 km/h (2 Bft)
17.10.2015 16:45 9,0 C 80 % 1018,2 hPa 0,0 mm O 94 8,0 km/h (2 Bft)
17.10.2015 16:50 8,9 C 80 % 1018,2 hPa 0,0 mm O-SO 110 6,4 km/h (2 Bft)
17.10.2015 16:55 8,9 C 80 % 1018,1 hPa 0,0 mm O-SO 121 4,8 km/h (1 Bft)
17.10.2015 17:00 8,8 C 81 % 1018,2 hPa 0,0 mm O-NO 68 8,0 km/h (2 Bft)
17.10.2015 17:05 8,7 C 81 % 1018,2 hPa 0,0 mm O-NO 68 4,8 km/h (1 Bft)
17.10.2015 17:10 8,7 C 82 % 1018,2 hPa 0,0 mm NO 46 4,8 km/h (1 Bft)
17.10.2015 17:15 8,5 C 81 % 1018,2 hPa 0,0 mm O-NO 76 3,2 km/h (1 Bft)
17.10.2015 17:20 8,4 C 81 % 1018,1 hPa 0,0 mm O-NO 67 4,8 km/h (1 Bft)
17.10.2015 17:25 8,3 C 82 % 1018,2 hPa 0,0 mm O-NO 67 3,2 km/h (1 Bft)
17.10.2015 17:30 8,3 C 83 % 1018,2 hPa 0,0 mm O 82 8,0 km/h (2 Bft)
17.10.2015 17:35 8,2 C 81 % 1018,1 hPa 0,0 mm O 79 6,4 km/h (2 Bft)
17.10.2015 17:40 8,2 C 82 % 1018,1 hPa 0,0 mm O 79 3,2 km/h (1 Bft)
17.10.2015 17:45 8,1 C 82 % 1018,2 hPa 0,0 mm O 82 8,0 km/h (2 Bft)
17.10.2015 17:50 8,0 C 82 % 1018,1 hPa 0,0 mm O 96 9,7 km/h (2 Bft)
17.10.2015 17:55 7,9 C 83 % 1018,0 hPa 0,0 mm O-NO 71 8,0 km/h (2 Bft)
17.10.2015 18:00 7,8 C 83 % 1018,3 hPa 0,0 mm O-NO 70 8,0 km/h (2 Bft)
17.10.2015 18:05 7,8 C 83 % 1018,3 hPa 0,0 mm O-NO 69 6,4 km/h (2 Bft)
17.10.2015 18:10 7,8 C 83 % 1018,4 hPa 0,0 mm NO 55 3,2 km/h (1 Bft)
17.10.2015 18:15 7,8 C 83 % 1018,4 hPa 0,0 mm NO 55 1,6 km/h (1 Bft)
17.10.2015 18:20 7,7 C 84 % 1018,2 hPa 0,0 mm O-NO 59 4,8 km/h (1 Bft)
17.10.2015 18:25 7,6 C 84 % 1018,2 hPa 0,0 mm O-SO 113 6,4 km/h (2 Bft)
17.10.2015 18:30 7,5 C 85 % 1018,3 hPa 0,0 mm SO 136 4,8 km/h (1 Bft)
17.10.2015 18:35 7,6 C 85 % 1018,3 hPa 0,0 mm SO 134 4,8 km/h (1 Bft)
17.10.2015 18:40 7,4 C 86 % 1018,4 hPa 0,0 mm SO 136 4,8 km/h (1 Bft)
17.10.2015 18:45 7,3 C 87 % 1018,4 hPa 0,0 mm SO 136 1,6 km/h (1 Bft)
17.10.2015 18:50 7,2 C 87 % 1018,4 hPa 0,0 mm SO 135 3,2 km/h (1 Bft)
17.10.2015 18:55 7,1 C 88 % 1018,4 hPa 0,0 mm SO 135 3,2 km/h (1 Bft)
17.10.2015 19:00 7,1 C 88 % 1018,4 hPa 0,0 mm SO 135 3,2 km/h (1 Bft)
17.10.2015 19:05 7,0 C 88 % 1018,4 hPa 0,0 mm SO 135 1,6 km/h (1 Bft)
17.10.2015 19:10 6,9 C 88 % 1018,4 hPa 0,0 mm SO 135 0,0 km/h (0 Bft)
17.10.2015 19:15 7,0 C 87 % 1018,5 hPa 0,0 mm SO 135 0,0 km/h (0 Bft)
17.10.2015 19:20 7,0 C 87 % 1018,5 hPa 0,0 mm SO 135 0,0 km/h (0 Bft)
17.10.2015 19:25 7,0 C 88 % 1018,5 hPa 0,0 mm SO 135 0,0 km/h (0 Bft)
17.10.2015 19:30 7,1 C 88 % 1018,5 hPa 0,0 mm SO 135 1,6 km/h (1 Bft)
17.10.2015 19:35 7,1 C 88 % 1018,5 hPa 0,0 mm SO 135 1,6 km/h (1 Bft)
17.10.2015 19:40 7,1 C 88 % 1018,4 hPa 0,0 mm SO 135 0,0 km/h (0 Bft)
17.10.2015 19:45 6,9 C 89 % 1018,4 hPa 0,0 mm SO 135 0,0 km/h (0 Bft)
17.10.2015 19:50 6,8 C 89 % 1018,5 hPa 0,0 mm SO 135 0,0 km/h (0 Bft)
17.10.2015 19:55 6,8 C 89 % 1018,5 hPa 0,0 mm SO 135 0,0 km/h (0 Bft)
17.10.2015 20:00 6,8 C 89 % 1018,5 hPa 0,0 mm SO 135 0,0 km/h (0 Bft)
17.10.2015 20:05 6,8 C 89 % 1018,4 hPa 0,0 mm SO 135 1,6 km/h (1 Bft)
17.10.2015 20:10 6,7 C 89 % 1018,4 hPa 0,0 mm SO 135 0,0 km/h (0 Bft)
17.10.2015 20:15 6,7 C 90 % 1018,5 hPa 0,0 mm SO 135 0,0 km/h (0 Bft)
17.10.2015 20:20 6,6 C 90 % 1018,5 hPa 0,0 mm SO 135 0,0 km/h (0 Bft)
17.10.2015 20:25 6,6 C 90 % 1018,6 hPa 0,0 mm SO 135 0,0 km/h (0 Bft)
17.10.2015 20:30 6,7 C 90 % 1018,5 hPa 0,0 mm SO 135 0,0 km/h (0 Bft)
17.10.2015 20:35 6,7 C 90 % 1018,5 hPa 0,0 mm SO 135 0,0 km/h (0 Bft)
17.10.2015 20:40 6,7 C 90 % 1018,5 hPa 0,0 mm SO 135 0,0 km/h (0 Bft)
17.10.2015 20:45 6,7 C 90 % 1018,5 hPa 0,0 mm SO 135 0,0 km/h (0 Bft)
17.10.2015 20:50 6,7 C 90 % 1018,4 hPa 0,0 mm SO 135 0,0 km/h (0 Bft)
17.10.2015 20:55 6,7 C 90 % 1018,5 hPa 0,0 mm SO 135 0,0 km/h (0 Bft)
17.10.2015 21:00 6,6 C 90 % 1018,5 hPa 0,0 mm SO 135 0,0 km/h (0 Bft)
17.10.2015 21:05 6,6 C 90 % 1018,5 hPa 0,0 mm SO 135 0,0 km/h (0 Bft)
17.10.2015 21:10 6,6 C 91 % 1018,3 hPa 0,0 mm SO 135 0,0 km/h (0 Bft)
17.10.2015 21:15 6,5 C 90 % 1018,4 hPa 0,0 mm SO 135 1,6 km/h (1 Bft)
17.10.2015 21:20 6,4 C 91 % 1018,5 hPa 0,0 mm SO 135 0,0 km/h (0 Bft)
17.10.2015 21:25 6,4 C 90 % 1018,4 hPa 0,0 mm SO 135 0,0 km/h (0 Bft)
17.10.2015 21:30 6,3 C 91 % 1018,4 hPa 0,0 mm SO 135 0,0 km/h (0 Bft)
17.10.2015 21:35 6,3 C 91 % 1018,5 hPa 0,0 mm SO 136 0,0 km/h (0 Bft)
17.10.2015 21:40 6,3 C 91 % 1018,4 hPa 0,0 mm SO 135 0,0 km/h (0 Bft)
17.10.2015 21:45 6,2 C 91 % 1018,4 hPa 0,0 mm SO 136 1,6 km/h (1 Bft)
17.10.2015 21:50 6,2 C 91 % 1018,3 hPa 0,0 mm SO 135 0,0 km/h (0 Bft)
17.10.2015 21:55 6,1 C 91 % 1018,3 hPa 0,0 mm SO 136 1,6 km/h (1 Bft)
17.10.2015 22:00 6,0 C 91 % 1018,4 hPa 0,0 mm SO 135 1,6 km/h (1 Bft)
17.10.2015 22:05 5,9 C 91 % 1018,3 hPa 0,0 mm SO 136 0,0 km/h (0 Bft)
17.10.2015 22:10 5,9 C 91 % 1018,2 hPa 0,0 mm SO 136 3,2 km/h (1 Bft)
17.10.2015 22:15 5,9 C 91 % 1018,3 hPa 0,0 mm SO 135 3,2 km/h (1 Bft)
17.10.2015 22:20 5,8 C 91 % 1018,1 hPa 0,0 mm SO 136 1,6 km/h (1 Bft)
17.10.2015 22:25 5,7 C 91 % 1018,3 hPa 0,0 mm SO 135 0,0 km/h (0 Bft)
17.10.2015 22:30 5,6 C 92 % 1018,3 hPa 0,0 mm SO 135 0,0 km/h (0 Bft)
17.10.2015 22:35 5,6 C 92 % 1018,1 hPa 0,0 mm SO 136 0,0 km/h (0 Bft)
17.10.2015 22:40 5,6 C 92 % 1018,2 hPa 0,0 mm SO 135 0,0 km/h (0 Bft)
17.10.2015 22:45 5,6 C 92 % 1018,2 hPa 0,0 mm SO 135 0,0 km/h (0 Bft)
17.10.2015 22:50 5,6 C 92 % 1018,3 hPa 0,0 mm SO 136 0,0 km/h (0 Bft)
17.10.2015 22:55 5,6 C 92 % 1018,4 hPa 0,0 mm SO 136 0,0 km/h (0 Bft)
17.10.2015 23:00 5,6 C 92 % 1018,4 hPa 0,0 mm SO 135 0,0 km/h (0 Bft)
17.10.2015 23:05 5,6 C 92 % 1018,4 hPa 0,0 mm SO 135 0,0 km/h (0 Bft)
17.10.2015 23:10 5,6 C 92 % 1018,4 hPa 0,0 mm SO 135 0,0 km/h (0 Bft)
17.10.2015 23:15 5,6 C 92 % 1018,4 hPa 0,0 mm SO 136 0,0 km/h (0 Bft)
17.10.2015 23:20 5,5 C 92 % 1018,3 hPa 0,0 mm SO 136 0,0 km/h (0 Bft)
17.10.2015 23:25 5,5 C 92 % 1018,3 hPa 0,0 mm SO 135 3,2 km/h (1 Bft)
17.10.2015 23:30 5,5 C 92 % 1018,2 hPa 0,0 mm SO 136 3,2 km/h (1 Bft)
17.10.2015 23:35 5,4 C 92 % 1018,2 hPa 0,0 mm SO 136 1,6 km/h (1 Bft)
17.10.2015 23:40 5,4 C 92 % 1018,2 hPa 0,0 mm SO 135 0,0 km/h (0 Bft)
17.10.2015 23:45 5,4 C 92 % 1018,2 hPa 0,0 mm SO 136 0,0 km/h (0 Bft)
17.10.2015 23:50 5,3 C 92 % 1018,0 hPa 0,0 mm SO 135 0,0 km/h (0 Bft)
17.10.2015 23:55 5,3 C 92 % 1018,0 hPa 0,0 mm SO 135 1,6 km/h (1 Bft)
_ Min-Zeit 03:30 15:10 15:05 - - - 00:25
Minimum _ 3,7 C 75 % 1018,0 hPa - - - 0,0 km/h (0 Bft)
_ Max-Zeit 15:10 05:00 09:10 00:00 - - 17:50
Maximum _ 9,4 C 94 % 1020,2 hPa 0,0 mm - - 9,7 km/h
O (2 Bft)
Durchschnitt _ 6,2 C 88 % 1019,0 hPa #0,0 mm W - 2,2 km/h (1 Bft)